Welcome to the New NWS' Forecast!
Most changes are behind the scenes, but click here for differences you might notice.

Regional Weather Roundup (RWR)

Issued by Gray - Portland, ME (GYX)

                            
000
ASUS41 KGYX 121005
RWRGYX
WEATHER ROUNDUP FOR MAINE AND NEW HAMPSHIRE
NATIONAL WEATHER SERVICE GRAY ME
500 AM EST MON NOV 12 2018

MEZ002-005-006-010-012-015-018-020-021-024-026-027-029-121100-
MAINE
  
CITY           SKY/WX    TMP DP  RH WIND       PRES   REMARKS
PORTLAND       FAIR      21  17  84 CALM      30.37R                  
SANFORD        FAIR      24  18  77 W6        30.37R                  
BAR HARBOR     FAIR      25  15  66 W5        30.32R                  
WISCASSET      FAIR      22  19  89 CALM      30.37R                  
ROCKLAND       FAIR      22  15  75 W8        30.34R                  
FRYEBURG       FAIR      27  15  61 CALM      30.33R                  
LEWISTONAUBURN FAIR      16  14  92 S3        30.36R                  
AUGUSTA        FAIR      26  11  52 W7        30.34R                  
WATERVILLE     FAIR      24  13  62 MISG      30.31R                  
BANGOR         FAIR      23  13  65 W3        30.32R                  
GREENVILLE       N/A     19  10  68 NW14G22   30.19R WCI   6          
MILLINOCKET    FAIR      22   8  55 W8G20     30.27R                  
HOULTON        FAIR      19  12  74 W9        30.19R                  
PRESQUE ISLE   FAIR      18  12  77 W7        30.20R                  
FRENCHVILLE    FAIR      19  10  68 NW8G21    30.13R                  
CARIBOU        FAIR      19  11  70 W5        30.17R                  
$$

NHZ002-005-008-009-011-012-014-121100-
NEW HAMPSHIRE
  
CITY           SKY/WX    TMP DP  RH WIND       PRES   REMARKS
PORTSMOUTH     CLEAR     28  20  71 W5        30.37R                  
ROCHESTER      FAIR      26  18  71 CALM      30.36R                  
NASHUA         CLOUDY    23  23 100 CALM      30.40R                  
MANCHESTER     FAIR      25  22  88 S3        30.37R                  
CONCORD        FAIR      21  17  84 CALM      30.37S                  
LACONIA        FAIR      25  19  78 W6        30.36R                  
PLYMOUTH       FAIR      21  18  86 CALM      30.36R                  
BERLIN         FAIR      13   9  84 CALM      30.30R                  
WHITEFIELD     FAIR      15  12  88 CALM      30.32R                  
JAFFREY        CLOUDY    27  25  92 CALM      30.35R                  
KEENE          CLOUDY    24  22  91 CALM      30.39R                  
LEBANON        CLOUDY    25  19  78 CALM      30.36R                  
MT WASHINGTON  FOG        7   7 100 W58         N/A  VSB 1/16WCI -23  
$$

VTZ005-007-008-121100-
VERMONT
  
CITY           SKY/WX    TMP DP  RH WIND       PRES   REMARKS
ST JOHNSBURY     N/A     16  14  92 MISG      30.34R                  
MONTPELIER     FAIR      18  16  92 CALM      30.35R                  
BURLINGTON     CLOUDY    27  21  78 E3        30.34F                  
$$

MAZ007-012-024-CTZ003-RIZ002-NYZ038-NYZ072-121100-
SOUTHERN NEW ENGLAND AND NY
  
CITY           SKY/WX    TMP DP  RH WIND       PRES   REMARKS
BOSTON         FAIR      35  21  56 NW6       30.41R                  
WORCESTER      FAIR      27  19  72 W7        30.36R                  
NANTUCKET      FAIR      38  21  50 NW10      30.41R                  
PROVIDENCE     FAIR      29  22  75 W6        30.42R                  
HARTFORD       FAIR      25  22  88 CALM      30.40S                  
ALBANY         MOCLDY    32  23  69 S7        30.38R                  
NEW YORK CITY  FAIR      39  28  64 SE6       30.41R                  
$$

ANZ081-ANZ082-ANZ150-NHZ014-MEZ023>029-121100-
COASTAL MARINE OBSERVATIONS
  
STATION/POSITION TIME  TEMP    WIND        PRES    WAVE
                       AIR SEA DIR/SP/G            HT/PER
                 (UTC) (F)     (DEG/KT/KT) (MB)    (FT/S)
MOUNT DESERT ROC 1000   33     270/ 17/ 21 1026.6R
MATINICUS ROCK   0900   34     300/ 24/ 27 1026.3R
ISLE OF SHOALS   0900   35     290/ 15/ 16 1027.8R
JEFFREYS LEDGE   0906      51                N/A     4/ 5
CASHES LEDGE BUO 0950   36 50              1027.9R   3/ 6
$$

.............KEY..............
   WCI - WIND CHILL
   TC  - TEMPERATURE IN CELSIUS
   VSB - VISIBILITY IN MILES
   HX  - HEAT INDEX
   FAIR- INDICATES FEW OR NO CLOUDS BELOW 12,000 FT, WITH NO 
         SIGNIFICANT WEATHER AND/OR OBSTRUCTIONS TO VISIBILITY.